Content
SEND FEEDBACK

Daily
Averages
Monthly
Summary
United States of America

THERMALITO, CALIFORNIA


Home > North America > United States > California
Elevation: 249 feet     Latitude: 39 30N     Longitude: 121 36W

WEATHER
 
SELECT A DAY
Number of Records: 154,194;   Date Range: 6/17/98 - 9/28/14
 
SHARE

PRINT THIS DATA

[ ← Previous Day ]
WEATHER ALMANAC - JANUARY 23, 2013
[ Next Day → ]
[ °C ]   °F
Weather ElementAverageHighLow
Temperature48.2 °F59 °F (12:53 pm)44.1 °F (3:53 am)
Dewpoint44.1 °F48.9 °F (3:53 pm)36 °F (1:53 am)
Humidity87.3 %100 % (6:31 pm)53 % (12:53 pm)
Barometer30.11 in30.15 in (7:53 pm)30.03 in (4:53 am)
Wind Speed3.7 mph8.1 mph (9:06 pm)
Weather ElementAverage
Visibility3.3 mi
Wind DirectionSSW (186.3 °)

Weather ElementTotal
Precipitation0.35 in
Heating Degree Days13.5 (Base 65)
Growing Degree Days1.6 (Base 50)
Averaged from 32 records on January 23, 2013
WEATHER CONDITIONS BREAKOUT
WIND DIRECTION BREAKOUT
WEATHER BY HOUR - JANUARY 23, 2013
[ °C ]   °F
Local TimeTemperatureDewpointHumidityBarometerVisibilityWind DirectionWind SpeedGust SpeedPrecipitationEventsConditions
1:53 AM46.9 °F36.0 °F66 %30.07 inEast (80°)5.8 mphClear
2:53 AM46.9 °F36.0 °F66 %30.07 inCalmClear
3:53 AM44.1 °F39.9 °F85 %30.05 inCalmClear
4:53 AM45.0 °F39.0 °F80 %30.03 inWest (280°)5.8 mphClear
5:53 AM44.1 °F37.9 °F79 %30.04 inNorth (360°)3.5 mphClear
6:53 AM44.1 °F37.9 °F79 %30.04 inWest (270°)4.6 mphClear
7:53 AM44.1 °F37.9 °F79 %30.04 inWest (270°)3.5 mphClear
8:53 AM46.9 °F39.0 °F74 %30.04 inCalmPartly Cloudy
9:53 AM48.0 °F41.0 °F77 %30.08 inCalmClear
10:53 AM50.0 °F43.0 °F77 %30.10 inCalmClear
11:53 AM53.1 °F39.9 °F61 %30.09 inESE (120°)4.6 mphClear
12:53 PM59.0 °F42.1 °F53 %30.08 in10.0 miCalmClear
1:53 PM57.0 °F41.0 °F55 %30.07 in9.0 miESE (120°)3.5 mphOvercast
2:53 PM51.1 °F46.0 °F83 %30.08 in8.0 miCalm0.00 inRainLight Rain
3:53 PM50.0 °F48.9 °F96 %30.10 in6.0 miCalm0.01 inRainLight Rain
4:53 PM51.1 °F48.0 °F89 %30.12 in4.0 miEast (80°)3.5 mph0.04 inRainLight Rain
5:53 PM50.0 °F48.0 °F93 %30.13 in4.0 miCalm0.03 inRainLight Rain
6:31 PM48.0 °F48.0 °F100 %30.13 in2.0 miWNW (290°)3.5 mph0.03 inRainLight Rain
6:43 PM46.9 °F46.9 °F100 %30.13 in1.8 miWNW (300°)3.5 mph0.04 inRainLight Rain
6:53 PM46.9 °F46.9 °F100 %30.14 in1.2 miNNW (330°)4.6 mph0.05 inRainLight Rain
7:53 PM48.0 °F48.0 °F100 %30.15 in2.0 miCalm0.02 inRainLight Rain
8:10 PM48.0 °F48.0 °F100 %30.14 in3.0 miNW (310°)5.8 mph0.00 inRainLight Rain
8:20 PM48.0 °F48.0 °F100 %30.14 in2.0 miNW (310°)5.8 mph0.01 inRainLight Rain
8:29 PM48.0 °F48.0 °F100 %30.14 in1.5 miNW (310°)6.9 mph0.01 inRainLight Rain
8:53 PM48.0 °F48.0 °F100 %30.15 in1.2 miNW (310°)6.9 mph0.02 inRainLight Rain
9:06 PM46.9 °F46.9 °F100 %30.14 in1.2 miNW (320°)8.1 mph0.01 inRainLight Rain
9:30 PM46.9 °F46.9 °F100 %30.14 in2.0 miNNW (330°)6.9 mph0.01 inRainLight Rain
9:53 PM46.9 °F46.9 °F100 %30.15 in2.0 miNW (310°)5.8 mph0.02 inRainLight Rain
10:17 PM46.9 °F46.9 °F100 %30.14 in1.8 miWNW (300°)6.9 mph0.00 inRainLight Rain
10:38 PM46.9 °F46.9 °F100 %30.15 in2.0 miNW (320°)5.8 mph0.01 inRainLight Rain
10:53 PM46.9 °F46.9 °F100 %30.15 in2.0 miNW (320°)6.9 mph0.01 inRainLight Rain
11:53 PM46.9 °F46.9 °F100 %30.15 in2.5 miNW (320°)5.8 mph0.03 inRainLight Rain
Hourly data recorded from KOVE, located miles away from Thermalito, California







STORIES FROM OUR PARTNERS